Location: Table Mountain
(47.2500°N, 120.5778°W)
Time: 04:14:45
(UTC-07:00)

Tiangong 1 - Pass Details

Date: 15 October 2017
Orbit: 294 x 320 km, 42.8° (Epoch: 18 October)

Event Time Altitude Azimuth Distance (km) Brightness Sun altitude
Rises 18:41:41 0° 265° (W) 2,043 7.7 -5.5°
Reaches altitude 10° 18:44:00 10° 246° (WSW) 1,207 5.1 -5.9°
Maximum altitude 18:46:00 19° 198° (SSW) 837 3.1 -6.2°
Drops below altitude 10° 18:47:59 10° 150° (SSE) 1,194 3.3 -6.5°
Enters shadow 18:49:53 - 132° (SE) 1,862 4.1 -6.9°
